Time,TemperatureF,DewpointF,PressureIn,WindDirection,WindDirectionDegrees,WindSpeedMPH,WindSpeedGustMPH,Humidity,HourlyPrecipIn,Conditions,Clouds,dailyrainin,SoftwareType,DateUTC
2013-07-13 00:02:00,58.1,50.6,30.12,North,0,0.4,0.9,76,0.00,,,0.00,WUHU216HW,2013-07-13 07:02:00,
2013-07-13 00:07:00,58.1,50.2,30.12,North,0,0.4,0.9,75,0.00,,,0.00,WUHU216HW,2013-07-13 07:07:00,
2013-07-13 00:12:00,58.1,50.2,30.12,North,0,0.2,0.9,75,0.00,,,0.00,WUHU216HW,2013-07-13 07:12:00,
2013-07-13 00:17:00,58.0,50.0,30.13,NNW,338,0.0,0.9,75,0.00,,,0.00,WUHU216HW,2013-07-13 07:17:00,
2013-07-13 00:22:00,58.0,50.0,30.13,North,0,0.4,0.9,75,0.00,,,0.00,WUHU216HW,2013-07-13 07:22:00,
2013-07-13 00:27:00,58.0,49.7,30.13,North,0,0.0,0.9,74,0.00,,,0.00,WUHU216HW,2013-07-13 07:27:00,
2013-07-13 00:32:00,58.0,49.7,30.13,East,90,0.0,0.9,74,0.00,,,0.00,WUHU216HW,2013-07-13 07:32:00,
2013-07-13 00:37:00,58.0,49.7,30.13,NNE,23,1.1,1.1,74,0.00,,,0.00,WUHU216HW,2013-07-13 07:37:00,
2013-07-13 00:42:00,58.0,49.7,30.13,NE,45,0.2,1.1,74,0.00,,,0.00,WUHU216HW,2013-07-13 07:42:00,
2013-07-13 00:47:00,57.8,49.1,30.13,ENE,68,1.1,1.8,73,0.00,,,0.00,WUHU216HW,2013-07-13 07:47:00,
2013-07-13 00:52:00,57.8,49.1,30.14,NNW,338,0.4,1.8,73,0.00,,,0.00,WUHU216HW,2013-07-13 07:52:00,
2013-07-13 00:57:00,57.6,49.0,30.13,NNE,23,0.9,1.1,73,0.00,,,0.00,WUHU216HW,2013-07-13 07:57:00,
2013-07-13 01:02:00,57.6,49.0,30.14,North,0,0.0,1.1,73,0.00,,,0.00,WUHU216HW,2013-07-13 08:02:00,
2013-07-13 01:07:00,57.4,48.8,30.14,NE,45,0.2,1.1,73,0.00,,,0.00,WUHU216HW,2013-07-13 08:07:00,
2013-07-13 01:12:00,57.4,48.8,30.14,NE,45,0.0,0.9,73,0.00,,,0.00,WUHU216HW,2013-07-13 08:12:00,
2013-07-13 01:17:00,57.2,48.6,30.14,North,0,1.1,1.1,73,0.00,,,0.00,WUHU216HW,2013-07-13 08:17:00,
2013-07-13 01:22:00,57.1,48.4,30.14,North,0,0.7,1.1,73,0.00,,,0.00,WUHU216HW,2013-07-13 08:22:00,
2013-07-13 01:27:00,57.1,48.4,30.14,North,0,0.7,1.1,73,0.00,,,0.00,WUHU216HW,2013-07-13 08:27:00,
2013-07-13 01:32:00,56.9,48.2,30.14,North,0,0.7,0.9,73,0.00,,,0.00,WUHU216HW,2013-07-13 08:32:00,
2013-07-13 01:37:00,56.5,48.0,30.14,North,0,0.7,0.7,73,0.00,,,0.00,WUHU216HW,2013-07-13 08:37:00,
2013-07-13 01:42:00,56.2,48.0,30.14,North,0,0.9,1.1,74,0.00,,,0.00,WUHU216HW,2013-07-13 08:42:00,
2013-07-13 01:47:00,55.8,48.0,30.14,North,0,0.2,1.1,75,0.00,,,0.00,WUHU216HW,2013-07-13 08:47:00,
2013-07-13 01:52:00,55.4,47.6,30.14,North,0,0.2,0.7,75,0.00,,,0.00,WUHU216HW,2013-07-13 08:52:00,
2013-07-13 01:57:00,55.4,47.6,30.14,North,0,0.0,0.2,75,0.00,,,0.00,WUHU216HW,2013-07-13 08:57:00,
2013-07-13 02:02:00,55.4,47.6,30.14,North,0,0.0,0.0,75,0.00,,,0.00,WUHU216HW,2013-07-13 09:02:00,
2013-07-13 02:07:00,55.4,47.6,30.14,North,0,0.0,0.7,75,0.00,,,0.00,WUHU216HW,2013-07-13 09:07:00,
2013-07-13 02:12:00,55.4,48.0,30.14,North,0,0.7,0.7,76,0.00,,,0.00,WUHU216HW,2013-07-13 09:12:00,
2013-07-13 02:17:00,55.3,47.8,30.14,North,0,0.7,0.7,76,0.00,,,0.00,WUHU216HW,2013-07-13 09:17:00,
2013-07-13 02:22:00,55.1,47.6,30.14,North,0,1.1,1.1,76,0.00,,,0.00,WUHU216HW,2013-07-13 09:22:00,
2013-07-13 02:27:00,54.9,47.4,30.14,North,0,0.2,1.1,76,0.00,,,0.00,WUHU216HW,2013-07-13 09:27:00,
2013-07-13 02:32:00,54.9,47.4,30.14,North,0,0.4,1.8,76,0.00,,,0.00,WUHU216HW,2013-07-13 09:32:00,
2013-07-13 02:37:00,55.1,47.6,30.14,North,0,0.4,1.8,76,0.00,,,0.00,WUHU216HW,2013-07-13 09:37:00,
2013-07-13 02:42:00,55.4,47.6,30.14,North,0,1.1,1.1,75,0.00,,,0.00,WUHU216HW,2013-07-13 09:42:00,
2013-07-13 02:47:00,55.4,47.6,30.14,North,0,0.9,1.8,75,0.00,,,0.00,WUHU216HW,2013-07-13 09:47:00,
2013-07-13 02:52:00,55.6,47.4,30.14,North,0,0.4,1.8,74,0.00,,,0.00,WUHU216HW,2013-07-13 09:52:00,
2013-07-13 02:57:00,55.6,47.4,30.15,North,0,0.4,1.3,74,0.00,,,0.00,WUHU216HW,2013-07-13 09:57:00,
2013-07-13 03:02:00,55.4,47.3,30.15,North,0,0.4,0.7,74,0.00,,,0.00,WUHU216HW,2013-07-13 10:02:00,
2013-07-13 03:07:00,55.1,47.3,30.15,North,0,0.4,1.1,75,0.00,,,0.00,WUHU216HW,2013-07-13 10:07:00,
2013-07-13 03:12:00,54.7,47.3,30.15,North,0,0.4,1.1,76,0.00,,,0.00,WUHU216HW,2013-07-13 10:12:00,
2013-07-13 03:17:00,54.4,46.6,30.15,North,0,0.4,0.9,75,0.00,,,0.00,WUHU216HW,2013-07-13 10:17:00,
2013-07-13 03:22:00,54.2,46.5,30.15,North,0,0.4,0.9,75,0.00,,,0.00,WUHU216HW,2013-07-13 10:22:00,
2013-07-13 03:27:00,54.0,46.6,30.15,North,0,0.4,0.9,76,0.00,,,0.00,WUHU216HW,2013-07-13 10:27:00,
2013-07-13 03:32:00,53.8,46.5,30.15,North,0,0.9,0.9,76,0.00,,,0.00,WUHU216HW,2013-07-13 10:32:00,
2013-07-13 03:37:00,53.6,46.6,30.15,North,0,0.7,0.9,77,0.00,,,0.00,WUHU216HW,2013-07-13 10:37:00,
2013-07-13 03:42:00,53.6,46.6,30.16,North,0,1.1,1.1,77,0.00,,,0.00,WUHU216HW,2013-07-13 10:42:00,
2013-07-13 03:47:00,53.5,46.8,30.16,North,0,0.7,1.1,78,0.00,,,0.00,WUHU216HW,2013-07-13 10:47:00,
2013-07-13 03:52:00,53.5,46.8,30.16,North,0,1.1,1.1,78,0.00,,,0.00,WUHU216HW,2013-07-13 10:52:00,
2013-07-13 03:57:00,53.3,46.6,30.16,North,0,0.9,1.1,78,0.00,,,0.00,WUHU216HW,2013-07-13 10:57:00,
2013-07-13 04:02:00,53.3,46.6,30.16,North,0,0.4,1.1,78,0.00,,,0.00,WUHU216HW,2013-07-13 11:02:00,
2013-07-13 04:07:00,53.3,46.6,30.16,North,0,0.0,1.1,78,0.00,,,0.00,WUHU216HW,2013-07-13 11:07:00,
2013-07-13 04:12:00,53.1,46.4,30.16,North,0,0.0,0.0,78,0.00,,,0.00,WUHU216HW,2013-07-13 11:12:00,
2013-07-13 04:17:00,53.1,46.4,30.16,North,0,0.4,0.4,78,0.00,,,0.00,WUHU216HW,2013-07-13 11:17:00,
2013-07-13 04:22:00,53.1,46.4,30.16,North,0,0.0,0.7,78,0.00,,,0.00,WUHU216HW,2013-07-13 11:22:00,
2013-07-13 04:27:00,53.1,46.4,30.16,North,0,0.0,0.7,78,0.00,,,0.00,WUHU216HW,2013-07-13 11:27:00,
2013-07-13 04:32:00,53.1,46.4,30.16,North,0,0.2,0.7,78,0.00,,,0.00,WUHU216HW,2013-07-13 11:32:00,
2013-07-13 04:37:00,53.3,46.6,30.16,North,0,0.2,0.7,78,0.00,,,0.00,WUHU216HW,2013-07-13 11:37:00,
2013-07-13 04:42:00,53.3,46.6,30.16,North,0,0.9,0.9,78,0.00,,,0.00,WUHU216HW,2013-07-13 11:42:00,
2013-07-13 04:47:00,53.3,46.6,30.16,North,0,0.4,0.9,78,0.00,,,0.00,WUHU216HW,2013-07-13 11:47:00,
2013-07-13 04:52:00,53.3,46.6,30.16,North,0,0.4,0.9,78,0.00,,,0.00,WUHU216HW,2013-07-13 11:52:00,
2013-07-13 04:57:00,53.3,46.6,30.16,NNW,338,0.4,0.9,78,0.00,,,0.00,WUHU216HW,2013-07-13 11:57:00,
2013-07-13 05:02:00,53.3,46.6,30.16,NNW,338,0.7,0.9,78,0.00,,,0.00,WUHU216HW,2013-07-13 12:02:00,
2013-07-13 05:07:00,53.1,46.4,30.16,NNW,338,1.1,1.1,78,0.00,,,0.00,WUHU216HW,2013-07-13 12:07:00,
2013-07-13 05:12:00,53.1,46.4,30.16,NNW,338,0.4,1.1,78,0.00,,,0.00,WUHU216HW,2013-07-13 12:12:00,
2013-07-13 05:17:00,52.9,46.6,30.17,NNW,338,0.0,0.9,79,0.00,,,0.00,WUHU216HW,2013-07-13 12:17:00,
2013-07-13 05:22:00,52.7,46.4,30.17,NNW,338,0.4,0.4,79,0.00,,,0.00,WUHU216HW,2013-07-13 12:22:00,
2013-07-13 05:27:00,52.7,46.4,30.17,NNW,338,0.2,0.4,79,0.00,,,0.00,WUHU216HW,2013-07-13 12:27:00,
2013-07-13 05:32:00,52.6,46.3,30.17,NNW,338,0.0,0.4,79,0.00,,,0.00,WUHU216HW,2013-07-13 12:32:00,
2013-07-13 05:37:00,52.6,46.3,30.18,NNW,338,0.0,0.2,79,0.00,,,0.00,WUHU216HW,2013-07-13 12:37:00,
2013-07-13 05:42:00,52.7,46.4,30.17,North,0,0.4,1.1,79,0.00,,,0.00,WUHU216HW,2013-07-13 12:42:00,
2013-07-13 05:47:00,52.9,46.6,30.17,North,0,0.4,1.3,79,0.00,,,0.00,WUHU216HW,2013-07-13 12:47:00,
2013-07-13 05:52:00,53.1,46.4,30.17,North,0,0.4,1.3,78,0.00,,,0.00,WUHU216HW,2013-07-13 12:52:00,
2013-07-13 05:57:00,53.1,46.4,30.18,North,0,0.2,1.6,78,0.00,,,0.00,WUHU216HW,2013-07-13 12:57:00,
2013-07-13 06:02:00,53.3,46.6,30.18,North,0,0.4,1.6,78,0.00,,,0.00,WUHU216HW,2013-07-13 13:02:00,
2013-07-13 06:07:00,53.5,46.8,30.18,North,0,0.0,1.1,78,0.00,,,0.00,WUHU216HW,2013-07-13 13:07:00,
2013-07-13 06:12:00,53.6,47.0,30.18,North,0,0.4,0.7,78,0.00,,,0.00,WUHU216HW,2013-07-13 13:12:00,
2013-07-13 06:17:00,53.8,47.2,30.18,North,0,1.6,1.8,78,0.00,,,0.00,WUHU216HW,2013-07-13 13:17:00,
2013-07-13 06:22:00,54.0,47.4,30.18,North,0,0.9,1.8,78,0.00,,,0.00,WUHU216HW,2013-07-13 13:22:00,
2013-07-13 06:27:00,54.4,47.6,30.18,North,0,0.4,1.1,78,0.00,,,0.00,WUHU216HW,2013-07-13 13:27:00,
2013-07-13 06:32:00,55.3,48.8,30.19,NE,45,0.4,0.9,79,0.00,,,0.00,WUHU216HW,2013-07-13 13:32:00,
2013-07-13 06:37:00,56.3,49.5,30.19,North,0,0.7,0.9,78,0.00,,,0.00,WUHU216HW,2013-07-13 13:37:00,
2013-07-13 06:42:00,57.8,50.2,30.19,North,0,0.0,0.9,76,0.00,,,0.00,WUHU216HW,2013-07-13 13:42:00,
2013-07-13 06:47:00,58.9,50.2,30.19,NNE,23,0.9,0.9,73,0.00,,,0.00,WUHU216HW,2013-07-13 13:47:00,
2013-07-13 06:52:00,58.7,49.7,30.19,NE,45,0.4,1.3,72,0.00,,,0.00,WUHU216HW,2013-07-13 13:52:00,
2013-07-13 06:57:00,58.1,49.1,30.19,NE,45,0.2,2.0,72,0.00,,,0.00,WUHU216HW,2013-07-13 13:57:00,
2013-07-13 07:02:00,57.6,49.0,30.19,East,90,0.2,2.0,73,0.00,,,0.00,WUHU216HW,2013-07-13 14:02:00,
2013-07-13 07:07:00,57.2,48.6,30.20,NE,45,0.7,2.0,73,0.00,,,0.00,WUHU216HW,2013-07-13 14:07:00,
2013-07-13 07:12:00,57.4,48.8,30.20,ENE,68,0.9,1.1,73,0.00,,,0.00,WUHU216HW,2013-07-13 14:12:00,
2013-07-13 07:17:00,60.7,52.0,30.19,NNE,23,1.6,1.6,73,0.00,,,0.00,WUHU216HW,2013-07-13 14:17:00,
2013-07-13 07:22:00,62.6,51.9,30.19,ENE,68,0.7,2.9,68,0.00,,,0.00,WUHU216HW,2013-07-13 14:22:00,
2013-07-13 07:27:00,64.8,53.6,30.20,East,90,2.2,2.9,67,0.00,,,0.00,WUHU216HW,2013-07-13 14:27:00,
2013-07-13 07:32:00,66.6,54.0,30.20,North,0,0.2,2.5,64,0.00,,,0.00,WUHU216HW,2013-07-13 14:32:00,
2013-07-13 07:37:00,67.9,55.2,30.20,ESE,113,1.6,2.2,64,0.00,,,0.00,WUHU216HW,2013-07-13 14:37:00,
2013-07-13 07:42:00,69.3,53.9,30.20,NE,45,2.9,4.0,58,0.00,,,0.00,WUHU216HW,2013-07-13 14:42:00,
2013-07-13 07:47:00,69.5,53.6,30.20,ENE,68,1.6,4.0,57,0.00,,,0.00,WUHU216HW,2013-07-13 14:47:00,
2013-07-13 07:52:00,69.5,53.6,30.20,ENE,68,0.4,3.1,57,0.00,,,0.00,WUHU216HW,2013-07-13 14:52:00,
2013-07-13 07:57:00,69.5,54.1,30.20,ENE,68,0.7,3.1,58,0.00,,,0.00,WUHU216HW,2013-07-13 14:57:00,
2013-07-13 08:02:00,71.3,56.3,30.20,SSE,158,0.7,2.5,59,0.00,,,0.00,WUHU216HW,2013-07-13 15:02:00,
2013-07-13 08:07:00,72.9,55.7,30.20,ENE,68,1.8,2.0,55,0.00,,,0.00,WUHU216HW,2013-07-13 15:07:00,
2013-07-13 08:12:00,72.5,54.4,30.20,North,0,2.2,2.2,53,0.00,,,0.00,WUHU216HW,2013-07-13 15:12:00,
2013-07-13 08:17:00,70.9,53.9,30.20,NE,45,0.2,2.5,55,0.00,,,0.00,WUHU216HW,2013-07-13 15:17:00,
2013-07-13 08:22:00,71.3,54.7,30.20,NE,45,0.4,3.4,56,0.00,,,0.00,WUHU216HW,2013-07-13 15:22:00,
2013-07-13 08:27:00,70.9,52.9,30.20,NE,45,2.5,3.4,53,0.00,,,0.00,WUHU216HW,2013-07-13 15:27:00,
2013-07-13 08:32:00,70.7,53.7,30.21,NNE,23,1.1,2.9,55,0.00,,,0.00,WUHU216HW,2013-07-13 15:32:00,
2013-07-13 08:37:00,69.3,51.4,30.21,ESE,113,2.0,3.4,53,0.00,,,0.00,WUHU216HW,2013-07-13 15:37:00,
2013-07-13 08:42:00,67.7,50.0,30.21,North,0,2.9,3.8,53,0.00,,,0.00,WUHU216HW,2013-07-13 15:42:00,
2013-07-13 08:47:00,66.4,49.8,30.21,North,0,3.1,3.8,55,0.00,,,0.00,WUHU216HW,2013-07-13 15:47:00,
2013-07-13 08:52:00,65.9,50.2,30.21,NNE,23,1.8,3.1,57,0.00,,,0.00,WUHU216HW,2013-07-13 15:52:00,
2013-07-13 08:57:00,65.7,50.1,30.21,East,90,1.1,3.4,57,0.00,,,0.00,WUHU216HW,2013-07-13 15:57:00,
2013-07-13 09:02:00,65.3,50.1,30.21,NNE,23,3.1,3.6,58,0.00,,,0.00,WUHU216HW,2013-07-13 16:02:00,
2013-07-13 09:07:00,65.3,50.7,30.21,ESE,113,0.4,3.6,59,0.00,,,0.00,WUHU216HW,2013-07-13 16:07:00,
2013-07-13 09:12:00,65.5,50.9,30.21,ENE,68,2.5,2.5,59,0.00,,,0.00,WUHU216HW,2013-07-13 16:12:00,
2013-07-13 09:17:00,65.5,50.9,30.21,NE,45,1.8,2.5,59,0.00,,,0.00,WUHU216HW,2013-07-13 16:17:00,
2013-07-13 09:22:00,65.2,50.5,30.21,NNW,338,2.9,3.4,59,0.00,,,0.00,WUHU216HW,2013-07-13 16:22:00,
2013-07-13 09:27:00,64.6,50.0,30.21,SE,135,2.2,3.8,59,0.00,,,0.00,WUHU216HW,2013-07-13 16:27:00,
2013-07-13 09:32:00,65.0,51.2,30.21,West,270,1.1,3.8,61,0.00,,,0.00,WUHU216HW,2013-07-13 16:32:00,
2013-07-13 09:37:00,65.2,50.9,30.21,NE,45,2.5,2.5,60,0.00,,,0.00,WUHU216HW,2013-07-13 16:37:00,
2013-07-13 09:42:00,65.5,52.1,30.21,SSE,158,1.8,2.5,62,0.00,,,0.00,WUHU216HW,2013-07-13 16:42:00,
2013-07-13 09:47:00,66.8,53.4,30.21,South,180,1.3,2.5,62,0.00,,,0.00,WUHU216HW,2013-07-13 16:47:00,
2013-07-13 09:52:00,67.3,53.5,30.21,NE,45,1.1,2.5,61,0.00,,,0.00,WUHU216HW,2013-07-13 16:52:00,
2013-07-13 09:57:00,67.1,52.4,30.21,North,0,0.0,2.2,59,0.00,,,0.00,WUHU216HW,2013-07-13 16:57:00,
2013-07-13 10:02:00,67.3,53.5,30.21,SSE,158,1.8,3.4,61,0.00,,,0.00,WUHU216HW,2013-07-13 17:02:00,
2013-07-13 10:07:00,68.6,54.6,30.21,SE,135,1.6,3.6,61,0.00,,,0.00,WUHU216HW,2013-07-13 17:07:00,
2013-07-13 10:12:00,69.5,55.5,30.20,SSE,158,3.4,3.6,61,0.00,,,0.00,WUHU216HW,2013-07-13 17:12:00,
2013-07-13 10:17:00,70.2,55.8,30.21,SSE,158,1.6,3.4,60,0.00,,,0.00,WUHU216HW,2013-07-13 17:17:00,
2013-07-13 10:22:00,70.7,56.3,30.21,ENE,68,1.1,2.0,60,0.00,,,0.00,WUHU216HW,2013-07-13 17:22:00,
2013-07-13 10:27:00,70.9,56.4,30.20,SSW,203,4.7,4.7,60,0.00,,,0.00,WUHU216HW,2013-07-13 17:27:00,
2013-07-13 10:32:00,71.3,56.7,30.20,ENE,68,1.8,4.7,60,0.00,,,0.00,WUHU216HW,2013-07-13 17:32:00,
2013-07-13 10:37:00,70.0,54.1,30.20,NNW,338,1.8,6.3,57,0.00,,,0.00,WUHU216HW,2013-07-13 17:37:00,
2013-07-13 10:42:00,69.5,54.1,30.20,NNE,23,2.5,6.3,58,0.00,,,0.00,WUHU216HW,2013-07-13 17:42:00,
2013-07-13 10:47:00,69.7,54.7,30.20,North,0,1.8,3.4,59,0.00,,,0.00,WUHU216HW,2013-07-13 17:47:00,
2013-07-13 10:52:00,70.2,55.8,30.20,South,180,0.4,3.4,60,0.00,,,0.00,WUHU216HW,2013-07-13 17:52:00,
2013-07-13 10:57:00,70.7,55.7,30.20,NNE,23,1.6,2.5,59,0.00,,,0.00,WUHU216HW,2013-07-13 17:57:00,
2013-07-13 11:02:00,70.6,55.6,30.20,SW,225,3.1,3.1,59,0.00,,,0.00,WUHU216HW,2013-07-13 18:02:00,
2013-07-13 11:08:00,70.9,55.9,30.20,SSE,158,1.1,3.1,59,0.00,,,0.00,WUHU216HW,2013-07-13 18:08:00,
2013-07-13 11:13:00,71.6,57.1,30.20,ESE,113,0.9,2.5,60,0.00,,,0.00,WUHU216HW,2013-07-13 18:13:00,
2013-07-13 11:18:00,71.6,56.5,30.20,ENE,68,1.1,3.6,59,0.00,,,0.00,WUHU216HW,2013-07-13 18:18:00,
2013-07-13 11:23:00,71.6,56.1,30.19,NNE,23,2.7,3.6,58,0.00,,,0.00,WUHU216HW,2013-07-13 18:23:00,
2013-07-13 11:28:00,71.6,55.5,30.19,NNE,23,3.1,3.4,57,0.00,,,0.00,WUHU216HW,2013-07-13 18:28:00,
2013-07-13 11:33:00,71.5,55.9,30.19,NNE,23,2.5,4.3,58,0.00,,,0.00,WUHU216HW,2013-07-13 18:33:00,
2013-07-13 11:38:00,71.8,56.3,30.19,NNE,23,0.9,4.3,58,0.00,,,0.00,WUHU216HW,2013-07-13 18:38:00,
2013-07-13 11:43:00,72.2,56.5,30.19,SSE,158,1.6,2.7,58,0.00,,,0.00,WUHU216HW,2013-07-13 18:43:00,
2013-07-13 11:48:00,72.4,56.7,30.19,SSE,158,3.4,3.4,58,0.00,,,0.00,WUHU216HW,2013-07-13 18:48:00,
2013-07-13 11:53:00,72.5,56.3,30.19,West,270,1.1,4.5,57,0.00,,,0.00,WUHU216HW,2013-07-13 18:53:00,
2013-07-13 11:58:00,72.7,56.5,30.19,NNW,338,2.0,4.5,57,0.00,,,0.00,WUHU216HW,2013-07-13 18:58:00,
2013-07-13 12:03:00,72.7,56.0,30.19,NNE,23,2.9,4.7,56,0.00,,,0.00,WUHU216HW,2013-07-13 19:03:00,
2013-07-13 12:08:00,72.5,56.3,30.19,ENE,68,0.9,4.7,57,0.00,,,0.00,WUHU216HW,2013-07-13 19:08:00,
2013-07-13 12:13:00,72.7,56.5,30.19,North,0,4.0,4.0,57,0.00,,,0.00,WUHU216HW,2013-07-13 19:13:00,
2013-07-13 12:18:00,72.7,56.0,30.19,North,0,1.1,4.0,56,0.00,,,0.00,WUHU216HW,2013-07-13 19:18:00,
2013-07-13 12:23:00,72.9,56.2,30.19,NE,45,0.4,3.6,56,0.00,,,0.00,WUHU216HW,2013-07-13 19:23:00,
2013-07-13 12:28:00,73.1,55.8,30.19,NNW,338,1.1,4.0,55,0.00,,,0.00,WUHU216HW,2013-07-13 19:28:00,
2013-07-13 12:33:00,73.1,56.3,30.19,SSE,158,0.7,4.0,56,0.00,,,0.00,WUHU216HW,2013-07-13 19:33:00,
2013-07-13 12:38:00,73.3,55.0,30.19,NNE,23,2.9,4.0,53,0.00,,,0.00,WUHU216HW,2013-07-13 19:38:00,
2013-07-13 12:43:00,73.4,56.2,30.19,SSE,158,0.7,4.0,55,0.00,,,0.00,WUHU216HW,2013-07-13 19:43:00,
2013-07-13 12:48:00,73.4,55.2,30.19,NW,315,2.2,6.9,53,0.00,,,0.00,WUHU216HW,2013-07-13 19:48:00,
2013-07-13 12:53:00,73.1,54.8,30.19,NNE,23,2.2,6.9,53,0.00,,,0.00,WUHU216HW,2013-07-13 19:53:00,
2013-07-13 12:58:00,73.1,55.4,30.19,NE,45,1.8,5.8,54,0.00,,,0.00,WUHU216HW,2013-07-13 19:58:00,
2013-07-13 13:03:00,73.3,55.0,30.19,NNE,23,1.1,4.7,53,0.00,,,0.00,WUHU216HW,2013-07-13 20:03:00,
2013-07-13 13:08:00,73.1,53.8,30.18,NNE,23,2.2,5.4,51,0.00,,,0.00,WUHU216HW,2013-07-13 20:08:00,
2013-07-13 13:13:00,72.9,54.2,30.18,ENE,68,1.3,5.4,52,0.00,,,0.00,WUHU216HW,2013-07-13 20:13:00,
2013-07-13 13:18:00,72.9,53.6,30.18,NE,45,4.0,4.0,51,0.00,,,0.00,WUHU216HW,2013-07-13 20:18:00,
2013-07-13 13:23:00,73.1,54.4,30.18,NNW,338,3.1,4.0,52,0.00,,,0.00,WUHU216HW,2013-07-13 20:23:00,
2013-07-13 13:28:00,73.3,54.0,30.18,ENE,68,1.3,3.4,51,0.00,,,0.00,WUHU216HW,2013-07-13 20:28:00,
2013-07-13 13:33:00,73.1,53.8,30.18,NNE,23,4.3,4.3,51,0.00,,,0.00,WUHU216HW,2013-07-13 20:33:00,
2013-07-13 13:38:00,73.4,54.2,30.18,NE,45,1.1,4.3,51,0.00,,,0.00,WUHU216HW,2013-07-13 20:38:00,
2013-07-13 13:43:00,73.3,54.0,30.18,ENE,68,1.6,4.5,51,0.00,,,0.00,WUHU216HW,2013-07-13 20:43:00,
2013-07-13 13:48:00,73.1,53.8,30.18,South,180,1.1,6.7,51,0.00,,,0.00,WUHU216HW,2013-07-13 20:48:00,
2013-07-13 13:53:00,73.4,54.2,30.18,NNW,338,3.1,6.7,51,0.00,,,0.00,WUHU216HW,2013-07-13 20:53:00,
2013-07-13 13:58:00,73.4,52.5,30.18,NNW,338,1.1,3.8,48,0.00,,,0.00,WUHU216HW,2013-07-13 20:58:00,
2013-07-13 14:03:00,73.3,52.3,30.18,NNW,338,2.5,3.6,48,0.00,,,0.00,WUHU216HW,2013-07-13 21:03:00,
2013-07-13 14:08:00,73.1,51.6,30.18,NNW,338,1.1,3.1,47,0.00,,,0.00,WUHU216HW,2013-07-13 21:08:00,
2013-07-13 14:13:00,73.1,52.1,30.17,NNE,23,1.8,3.6,48,0.00,,,0.00,WUHU216HW,2013-07-13 21:13:00,
2013-07-13 14:18:00,73.1,52.1,30.17,North,0,2.7,4.5,48,0.00,,,0.00,WUHU216HW,2013-07-13 21:18:00,
2013-07-13 14:23:00,73.3,52.3,30.17,SE,135,0.4,4.5,48,0.00,,,0.00,WUHU216HW,2013-07-13 21:23:00,
2013-07-13 14:28:00,73.4,50.7,30.17,NNE,23,3.4,4.3,45,0.00,,,0.00,WUHU216HW,2013-07-13 21:28:00,
2013-07-13 14:33:00,73.6,52.7,30.16,NNE,23,3.4,4.3,48,0.00,,,0.00,WUHU216HW,2013-07-13 21:33:00,
2013-07-13 14:38:00,73.8,52.8,30.16,NNW,338,0.9,4.3,48,0.00,,,0.00,WUHU216HW,2013-07-13 21:38:00,
2013-07-13 14:43:00,74.0,53.0,30.16,North,0,2.5,2.5,48,0.00,,,0.00,WUHU216HW,2013-07-13 21:43:00,
2013-07-13 14:48:00,74.0,51.8,30.16,NNW,338,6.7,6.7,46,0.00,,,0.00,WUHU216HW,2013-07-13 21:48:00,
2013-07-13 14:53:00,74.0,52.4,30.16,NNW,338,1.3,6.7,47,0.00,,,0.00,WUHU216HW,2013-07-13 21:53:00,
2013-07-13 14:58:00,74.2,52.6,30.16,NNE,23,0.9,5.6,47,0.00,,,0.00,WUHU216HW,2013-07-13 21:58:00,
2013-07-13 15:03:00,74.2,52.6,30.16,NW,315,1.3,5.6,47,0.00,,,0.00,WUHU216HW,2013-07-13 22:03:00,
2013-07-13 15:08:00,74.3,52.1,30.16,North,0,3.4,6.7,46,0.00,,,0.00,WUHU216HW,2013-07-13 22:08:00,
2013-07-13 15:13:00,74.3,52.8,30.15,ESE,113,1.1,6.7,47,0.00,,,0.00,WUHU216HW,2013-07-13 22:13:00,
2013-07-13 15:18:00,74.3,52.8,30.15,NW,315,2.0,3.1,47,0.00,,,0.00,WUHU216HW,2013-07-13 22:18:00,
2013-07-13 15:23:00,74.5,52.9,30.15,NE,45,1.3,2.5,47,0.00,,,0.00,WUHU216HW,2013-07-13 22:23:00,
2013-07-13 15:28:00,74.5,52.3,30.15,SE,135,0.4,2.5,46,0.00,,,0.00,WUHU216HW,2013-07-13 22:28:00,
2013-07-13 15:33:00,74.5,52.3,30.15,North,0,2.5,2.5,46,0.00,,,0.00,WUHU216HW,2013-07-13 22:33:00,
2013-07-13 15:38:00,74.7,52.5,30.15,NE,45,1.6,2.5,46,0.00,,,0.00,WUHU216HW,2013-07-13 22:38:00,
2013-07-13 15:43:00,74.7,52.5,30.15,NE,45,2.5,4.3,46,0.00,,,0.00,WUHU216HW,2013-07-13 22:43:00,
2013-07-13 15:48:00,74.5,52.3,30.14,NNE,23,2.0,4.3,46,0.00,,,0.00,WUHU216HW,2013-07-13 22:48:00,
2013-07-13 15:53:00,74.7,52.5,30.14,South,180,1.6,5.6,46,0.00,,,0.00,WUHU216HW,2013-07-13 22:53:00,
2013-07-13 15:58:00,74.7,51.8,30.14,North,0,2.0,5.6,45,0.00,,,0.00,WUHU216HW,2013-07-13 22:58:00,
2013-07-13 16:03:00,74.5,52.3,30.14,SSE,158,1.1,3.4,46,0.00,,,0.00,WUHU216HW,2013-07-13 23:03:00,
2013-07-13 16:08:00,74.7,51.8,30.14,North,0,3.1,3.1,45,0.00,,,0.00,WUHU216HW,2013-07-13 23:08:00,
2013-07-13 16:13:00,74.7,51.8,30.14,North,0,2.5,4.0,45,0.00,,,0.00,WUHU216HW,2013-07-13 23:13:00,
2013-07-13 16:18:00,74.5,52.3,30.14,SSE,158,0.4,4.0,46,0.00,,,0.00,WUHU216HW,2013-07-13 23:18:00,
2013-07-13 16:23:00,74.5,51.7,30.14,NNW,338,1.6,2.7,45,0.00,,,0.00,WUHU216HW,2013-07-13 23:23:00,
2013-07-13 16:28:00,74.2,51.4,30.14,NNW,338,1.3,6.0,45,0.00,,,0.00,WUHU216HW,2013-07-13 23:28:00,
2013-07-13 16:33:00,74.2,51.9,30.14,North,0,1.8,6.0,46,0.00,,,0.00,WUHU216HW,2013-07-13 23:33:00,
2013-07-13 16:38:00,74.3,52.1,30.13,South,180,1.8,3.4,46,0.00,,,0.00,WUHU216HW,2013-07-13 23:38:00,
2013-07-13 16:43:00,74.2,51.9,30.13,NW,315,1.8,2.5,46,0.00,,,0.00,WUHU216HW,2013-07-13 23:43:00,
2013-07-13 16:48:00,74.2,51.9,30.13,SSW,203,1.6,5.1,46,0.00,,,0.00,WUHU216HW,2013-07-13 23:48:00,
2013-07-13 16:53:00,74.2,51.4,30.13,NW,315,0.7,5.1,45,0.00,,,0.00,WUHU216HW,2013-07-13 23:53:00,
2013-07-13 16:58:00,74.0,51.2,30.13,West,270,0.4,3.4,45,0.00,,,0.00,WUHU216HW,2013-07-13 23:58:00,
2013-07-13 17:03:00,74.2,51.4,30.13,WSW,248,0.9,3.4,45,0.00,,,0.00,WUHU216HW,2013-07-14 00:03:00,
2013-07-13 17:08:00,74.0,51.8,30.13,North,0,0.7,2.5,46,0.00,,,0.00,WUHU216HW,2013-07-14 00:08:00,
2013-07-13 17:13:00,74.2,51.4,30.12,ENE,68,1.1,5.6,45,0.00,,,0.00,WUHU216HW,2013-07-14 00:13:00,
2013-07-13 17:18:00,74.0,50.6,30.12,NNE,23,1.1,5.6,44,0.00,,,0.00,WUHU216HW,2013-07-14 00:18:00,
2013-07-13 17:23:00,74.0,51.8,30.13,NNW,338,0.7,5.4,46,0.00,,,0.00,WUHU216HW,2013-07-14 00:23:00,
2013-07-13 17:28:00,73.8,51.6,30.12,NNE,23,2.0,5.4,46,0.00,,,0.00,WUHU216HW,2013-07-14 00:28:00,
2013-07-13 17:33:00,73.6,51.5,30.12,North,0,2.2,4.7,46,0.00,,,0.00,WUHU216HW,2013-07-14 00:33:00,
2013-07-13 17:38:00,73.4,51.3,30.12,NNE,23,2.5,4.7,46,0.00,,,0.00,WUHU216HW,2013-07-14 00:38:00,
2013-07-13 17:43:00,73.4,51.3,30.12,NNW,338,2.0,2.5,46,0.00,,,0.00,WUHU216HW,2013-07-14 00:43:00,
2013-07-13 17:48:00,73.3,51.7,30.12,NNE,23,1.1,3.8,47,0.00,,,0.00,WUHU216HW,2013-07-14 00:48:00,
2013-07-13 17:53:00,73.1,51.6,30.12,WSW,248,1.8,3.8,47,0.00,,,0.00,WUHU216HW,2013-07-14 00:53:00,
2013-07-13 17:58:00,72.9,51.4,30.12,West,270,1.1,3.4,47,0.00,,,0.00,WUHU216HW,2013-07-14 00:58:00,
2013-07-13 18:03:00,72.7,51.2,30.12,NNE,23,2.9,4.5,47,0.00,,,0.00,WUHU216HW,2013-07-14 01:03:00,
2013-07-13 18:08:00,72.4,51.5,30.12,North,0,3.6,4.5,48,0.00,,,0.00,WUHU216HW,2013-07-14 01:08:00,
2013-07-13 18:13:00,72.2,51.3,30.12,NNW,338,1.1,3.6,48,0.00,,,0.00,WUHU216HW,2013-07-14 01:13:00,
2013-07-13 18:18:00,72.2,51.3,30.12,NNW,338,0.7,3.6,48,0.00,,,0.00,WUHU216HW,2013-07-14 01:18:00,
2013-07-13 18:23:00,72.2,51.3,30.12,North,0,1.1,3.6,48,0.00,,,0.00,WUHU216HW,2013-07-14 01:23:00,
2013-07-13 18:28:00,72.0,51.1,30.12,North,0,2.9,2.9,48,0.00,,,0.00,WUHU216HW,2013-07-14 01:28:00,
2013-07-13 18:33:00,71.6,51.4,30.12,East,90,2.2,2.9,49,0.00,,,0.00,WUHU216HW,2013-07-14 01:33:00,
2013-07-13 18:38:00,71.6,51.4,30.12,NW,315,1.6,3.4,49,0.00,,,0.00,WUHU216HW,2013-07-14 01:38:00,
2013-07-13 18:43:00,71.6,51.4,30.12,North,0,1.8,3.4,49,0.00,,,0.00,WUHU216HW,2013-07-14 01:43:00,
2013-07-13 18:48:00,71.5,51.3,30.12,NNE,23,1.8,2.2,49,0.00,,,0.00,WUHU216HW,2013-07-14 01:48:00,
2013-07-13 18:53:00,71.3,51.1,30.12,South,180,0.4,2.5,49,0.00,,,0.00,WUHU216HW,2013-07-14 01:53:00,
2013-07-13 18:58:00,71.1,50.9,30.12,NW,315,0.4,2.5,49,0.00,,,0.00,WUHU216HW,2013-07-14 01:58:00,
2013-07-13 19:03:00,70.9,50.8,30.12,NNE,23,2.0,2.2,49,0.00,,,0.00,WUHU216HW,2013-07-14 02:03:00,
2013-07-13 19:08:00,70.7,50.6,30.13,NNW,338,0.7,2.2,49,0.00,,,0.00,WUHU216HW,2013-07-14 02:08:00,
2013-07-13 19:13:00,70.6,50.5,30.12,NNW,338,1.3,2.5,49,0.00,,,0.00,WUHU216HW,2013-07-14 02:13:00,
2013-07-13 19:18:00,70.6,50.5,30.13,NNW,338,0.4,3.4,49,0.00,,,0.00,WUHU216HW,2013-07-14 02:18:00,
2013-07-13 19:23:00,70.2,50.1,30.13,NE,45,1.1,3.4,49,0.00,,,0.00,WUHU216HW,2013-07-14 02:23:00,
2013-07-13 19:28:00,70.2,50.1,30.13,NNE,23,2.5,2.5,49,0.00,,,0.00,WUHU216HW,2013-07-14 02:28:00,
2013-07-13 19:33:00,70.0,50.6,30.13,SW,225,0.9,2.5,50,0.00,,,0.00,WUHU216HW,2013-07-14 02:33:00,
2013-07-13 19:38:00,69.8,50.4,30.13,WSW,248,1.1,3.1,50,0.00,,,0.00,WUHU216HW,2013-07-14 02:38:00,
2013-07-13 19:43:00,69.7,50.8,30.13,NNW,338,0.7,3.6,51,0.00,,,0.00,WUHU216HW,2013-07-14 02:43:00,
2013-07-13 19:48:00,69.5,50.6,30.13,NE,45,0.4,3.6,51,0.00,,,0.00,WUHU216HW,2013-07-14 02:48:00,
2013-07-13 19:53:00,69.5,50.6,30.13,NNE,23,2.0,2.7,51,0.00,,,0.00,WUHU216HW,2013-07-14 02:53:00,
2013-07-13 19:58:00,69.3,51.0,30.13,NE,45,1.1,2.2,52,0.00,,,0.00,WUHU216HW,2013-07-14 02:58:00,
2013-07-13 20:03:00,69.1,50.8,30.13,NNE,23,0.9,1.6,52,0.00,,,0.00,WUHU216HW,2013-07-14 03:03:00,
2013-07-13 20:08:00,68.9,51.1,30.13,North,0,0.9,2.2,53,0.00,,,0.00,WUHU216HW,2013-07-14 03:08:00,
2013-07-13 20:13:00,68.8,51.0,30.13,North,0,0.7,2.2,53,0.00,,,0.00,WUHU216HW,2013-07-14 03:13:00,
2013-07-13 20:18:00,68.6,50.8,30.13,North,0,1.8,2.5,53,0.00,,,0.00,WUHU216HW,2013-07-14 03:18:00,
2013-07-13 20:23:00,68.4,50.6,30.13,NW,315,2.9,2.9,53,0.00,,,0.00,WUHU216HW,2013-07-14 03:23:00,
2013-07-13 20:28:00,68.4,50.6,30.13,NW,315,0.4,2.9,53,0.00,,,0.00,WUHU216HW,2013-07-14 03:28:00,
2013-07-13 20:33:00,68.2,50.9,30.13,NNE,23,1.1,1.8,54,0.00,,,0.00,WUHU216HW,2013-07-14 03:33:00,
2013-07-13 20:38:00,68.0,50.8,30.13,NNW,338,0.2,1.1,54,0.00,,,0.00,WUHU216HW,2013-07-14 03:38:00,
2013-07-13 20:43:00,67.9,50.6,30.13,North,0,0.4,2.0,54,0.00,,,0.00,WUHU216HW,2013-07-14 03:43:00,
2013-07-13 20:48:00,67.7,50.9,30.13,NNW,338,2.0,2.0,55,0.00,,,0.00,WUHU216HW,2013-07-14 03:48:00,
2013-07-13 20:53:00,67.3,50.6,30.13,NNW,338,0.4,2.0,55,0.00,,,0.00,WUHU216HW,2013-07-14 03:53:00,
2013-07-13 20:58:00,67.3,50.6,30.12,WSW,248,0.7,1.6,55,0.00,,,0.00,WUHU216HW,2013-07-14 03:58:00,
2013-07-13 21:01:00,67.1,50.9,30.13,North,0,0.7,1.1,56,0.00,,,0.00,WUHU216HW,2013-07-14 04:01:00,
2013-07-13 21:06:00,67.0,50.8,30.13,NNW,338,1.3,2.5,56,0.00,,,0.00,WUHU216HW,2013-07-14 04:06:00,
2013-07-13 21:11:00,66.8,50.6,30.13,North,0,2.5,2.5,56,0.00,,,0.00,WUHU216HW,2013-07-14 04:11:00,
2013-07-13 21:16:00,66.6,50.4,30.13,NNE,23,2.2,2.9,56,0.00,,,0.00,WUHU216HW,2013-07-14 04:16:00,
2013-07-13 21:21:00,66.6,50.9,30.13,NNW,338,2.7,3.1,57,0.00,,,0.00,WUHU216HW,2013-07-14 04:21:00,
2013-07-13 21:26:00,66.4,50.8,30.13,NNE,23,2.2,4.5,57,0.00,,,0.00,WUHU216HW,2013-07-14 04:26:00,
2013-07-13 21:31:00,66.2,50.6,30.13,WNW,293,2.7,4.5,57,0.00,,,0.00,WUHU216HW,2013-07-14 04:31:00,
2013-07-13 21:36:00,66.2,50.6,30.13,North,0,1.1,2.7,57,0.00,,,0.00,WUHU216HW,2013-07-14 04:36:00,
2013-07-13 21:41:00,66.1,49.9,30.13,NNW,338,0.7,2.5,56,0.00,,,0.00,WUHU216HW,2013-07-14 04:41:00,
2013-07-13 21:46:00,65.9,49.7,30.13,North,0,0.7,2.5,56,0.00,,,0.00,WUHU216HW,2013-07-14 04:46:00,
2013-07-13 21:51:00,65.9,49.7,30.13,NE,45,1.6,1.6,56,0.00,,,0.00,WUHU216HW,2013-07-14 04:51:00,
2013-07-13 21:56:00,65.9,49.7,30.14,NE,45,0.4,1.8,56,0.00,,,0.00,WUHU216HW,2013-07-14 04:56:00,
2013-07-13 22:01:00,65.7,49.5,30.13,NNE,23,0.4,1.8,56,0.00,,,0.00,WUHU216HW,2013-07-14 05:01:00,
2013-07-13 22:06:00,65.5,49.3,30.14,North,0,1.1,1.1,56,0.00,,,0.00,WUHU216HW,2013-07-14 05:06:00,
2013-07-13 22:11:00,65.0,49.3,30.14,NNW,338,1.1,1.3,57,0.00,,,0.00,WUHU216HW,2013-07-14 05:11:00,
2013-07-13 22:16:00,64.6,49.0,30.14,NE,45,0.4,1.3,57,0.00,,,0.00,WUHU216HW,2013-07-14 05:16:00,
2013-07-13 22:21:00,64.4,48.8,30.14,WNW,293,0.4,2.9,57,0.00,,,0.00,WUHU216HW,2013-07-14 05:21:00,
2013-07-13 22:26:00,64.4,48.8,30.14,NNE,23,0.0,2.9,57,0.00,,,0.00,WUHU216HW,2013-07-14 05:26:00,
2013-07-13 22:31:00,64.4,48.8,30.14,NNE,23,0.0,1.1,57,0.00,,,0.00,WUHU216HW,2013-07-14 05:31:00,
2013-07-13 22:36:00,64.4,48.8,30.14,NNE,23,0.0,0.4,57,0.00,,,0.00,WUHU216HW,2013-07-14 05:36:00,
2013-07-13 22:41:00,64.3,48.6,30.14,South,180,0.7,0.7,57,0.00,,,0.00,WUHU216HW,2013-07-14 05:41:00,
2013-07-13 22:46:00,64.3,48.6,30.14,North,0,0.0,0.7,57,0.00,,,0.00,WUHU216HW,2013-07-14 05:46:00,
2013-07-13 22:51:00,63.7,48.6,30.14,North,0,0.2,0.9,58,0.00,,,0.00,WUHU216HW,2013-07-14 05:51:00,
2013-07-13 22:56:00,63.4,48.2,30.14,North,0,0.4,0.9,58,0.00,,,0.00,WUHU216HW,2013-07-14 05:56:00,
2013-07-13 23:01:00,63.0,48.4,30.14,North,0,0.4,1.6,59,0.00,,,0.00,WUHU216HW,2013-07-14 06:01:00,
2013-07-13 23:06:00,63.0,48.4,30.14,NE,45,0.2,1.6,59,0.00,,,0.00,WUHU216HW,2013-07-14 06:06:00,
2013-07-13 23:11:00,63.0,48.4,30.14,North,0,1.3,1.8,59,0.00,,,0.00,WUHU216HW,2013-07-14 06:11:00,
2013-07-13 23:16:00,63.0,48.4,30.14,NNE,23,0.9,1.8,59,0.00,,,0.00,WUHU216HW,2013-07-14 06:16:00,
2013-07-13 23:21:00,63.0,48.4,30.14,NNE,23,0.2,1.8,59,0.00,,,0.00,WUHU216HW,2013-07-14 06:21:00,
2013-07-13 23:26:00,63.0,48.4,30.14,NNE,23,0.2,1.1,59,0.00,,,0.00,WUHU216HW,2013-07-14 06:26:00,
2013-07-13 23:31:00,62.8,48.2,30.14,NNE,23,1.1,1.1,59,0.00,,,0.00,WUHU216HW,2013-07-14 06:31:00,
2013-07-13 23:36:00,62.8,48.2,30.14,NNE,23,0.4,2.0,59,0.00,,,0.00,WUHU216HW,2013-07-14 06:36:00,
2013-07-13 23:41:00,62.6,48.2,30.14,North,0,0.0,2.0,59,0.00,,,0.00,WUHU216HW,2013-07-14 06:41:00,
2013-07-13 23:46:00,62.3,47.8,30.14,North,0,0.9,1.8,59,0.00,,,0.00,WUHU216HW,2013-07-14 06:46:00,
2013-07-13 23:51:00,62.1,48.2,30.14,NNW,338,0.4,1.8,60,0.00,,,0.00,WUHU216HW,2013-07-14 06:51:00,
2013-07-13 23:56:00,61.9,48.0,30.14,NNW,338,0.7,1.1,60,0.00,,,0.00,WUHU216HW,2013-07-14 06:56:00,